Regional Weather Roundup
Issued by NWS Kansas City/Pleasant Hill, MO

Home | Current Version | Previous Version | Text Only | Print | Product List | Glossary On
Versions: 1 2 3 4 5 6 7 8 9 10 11 12 13 14 15 16 17 18 19 20 21 22 23 24 25 26 27 28 29 30 31 32 33 34 35 36 37 38 39 40 41 42 43 44 45 46 47 48 49 50
683
ASUS43 KEAX 210210
RWREAX

WEATHER ROUNDUP FOR EASTERN KANSAS AND NORTHWEST MISSOURI
NATIONAL WEATHER SERVICE KANSAS CITY/PLEASANT HILL MO
800 PM CST FRI JAN 20 2017

KSZ040-057-103>105-MOZ028-029-037-043-210300-
...KANSAS CITY METROPOLITAN AREA...

CITY           SKY/WX    TMP DP  RH WIND       PRES   REMARKS
K.C. INTL      CLOUDY    48  46  93 SE6       29.46F FOG
K.C. DOWNTOWN  CLOUDY    50  48  93 CALM      29.46S
LEES SUMMIT    CLEAR     50  47  89 SE5       29.48S
OLATHE - IXD   PTCLDY    46  43  89 SE6       29.47S
OLATHE - OJC   CLEAR     44  44 100 S3        29.47R
LAWRENCE       CLOUDY    48  47  96 E3        29.46S FOG

$$

MOZ001>008-011>017-020>025-030>033-038>040-044>046-053-054-210300-
...NORTHERN AND CENTRAL MISSOURI...

CITY           SKY/WX    TMP DP  RH WIND       PRES   REMARKS
ST. JOSEPH     CLOUDY    45  45 100 CALM      29.46F FOG
MOSBY          CLOUDY    50  48  93 CALM      29.47S
WARRENSBURG    CLEAR     45  43  93 E5        29.47S
WHITEMAN AFB   CLEAR     46  46 100 SE5       29.47S
CLINTON        PTCLDY    50  41  71 CALM      29.49R
SEDALIA        CLEAR     46  44  93 E3        29.50S
WARSAW         NOT AVBL
CHILLICOTHE      N/A     48  47  96 SE7       29.49F
KIRKSVILLE     FOG       47  47 100 SE7       29.52S VSB 1

$$

MOZ041-047>049-056>058-063>065-088>090-097-210300-
...EASTERN AND SOUTHERN MISSOURI...

CITY           SKY/WX    TMP DP  RH WIND       PRES   REMARKS
ST. LOUIS INTL CLEAR     51  48  89 SE8       29.58R
SPIRIT OF STL  CLEAR     45  45 100 E6        29.56S
COLUMBIA       CLEAR     47  46  97 E8        29.51R
JEFFERSON CITY CLEAR     48  45  89 SE7       29.51R
ROLLA          CLEAR     52  48  86 S10       29.52R
OSAGE BEACH    CLEAR     53  47  79 S7        29.52S
SPRINGFIELD    CLEAR     56  39  53 S13       29.53R
BRANSON        PTCLDY    57  37  47 S10       29.56S
JOPLIN         CLEAR     54  38  54 S6        29.51S
WEST PLAINS    CLEAR     57  48  72 S12       29.60R

$$

IAZ060-094-KSZ022-034>040-054-083-096-NEZ052-066-093-210300-
...KANSAS...SOUTHEAST NEBRASKA AND IOWA...

CITY           SKY/WX    TMP DP  RH WIND       PRES   REMARKS
TOPEKA         CLOUDY    50  46  86 CALM      29.45S
MANHATTAN      CLOUDY    47  45  93 SW7       29.44R
EMPORIA        CLEAR     40  39  97 S6        29.44F
CHANUTE        PTCLDY    43  38  82 CALM      29.47F
WICHITA        PTCLDY    37  35  92 NW7       29.44S WCI  32
OMAHA          DRIZZLE   41  38  89 SE9       29.45F
LINCOLN        LGT RAIN  43  42  97 SE8       29.44S FOG
FALLS CITY     LGT RAIN  44  44 100 SE6       29.45S VSB 1/2
LAMONI         FOG       44  44 100 E7        29.47F VSB 1/2
DES MOINES     LGT RAIN  41  40  96 E8        29.51S VSB 1/2

$$





USA.gov is the U.S. government's official web portal to all federal, state and local government web resources and services.